Location: Tierz
(42.1336°N, 0.3549°W)
Time: 18:24:09
(UTC+00:00)

Meteor 2-14 Rocket - Pass Details

Date: 29 October 2020
Orbit: 937 x 957 km, 82.5° (Epoch: 04 December)

Event Time Altitude Azimuth Distance (km) Brightness Sun altitude
Rises 17:20:24 0° 352° (N) 3,640 7.4 -4.7°
Reaches altitude 10° 17:22:55 10° 353° (N) 2,688 6.8 -5.2°
Maximum altitude 17:29:05 86° 82° (E) 957 4.5 -6.3°
Drops below altitude 10° 17:35:11 10° 172° (S) 2,656 6.9 -7.4°
Sets 17:37:39 0° 173° (S) 3,594 7.5 -7.8°
